Flag for China Weather past 2 weeks in Chongqing, Chongqing Municipality, China

Now
70 °F

Passing clouds.


Feels Like: 70 °F
Forecast: 69 / 88 °F
Wind: 3 mph from North

Location: Chongqing Airport

Current Time: May 26, 2015 at 10:53:44 PM

Latest Report: May 26, 2015 at 10:00 PM


Visibility: N/A

Pressure: 29.80 "Hg

Humidity: 83%

Dew point: 64 °F

Location of ChongqingLocation

Historic Weather in Chongqing — Graph

°F

Chongqing temperature yesterday

Maximum temperature yesterday: 73 °F (at 12:00 AM)
Minimum temperature yesterday: 68 °F (at 6:00 AM)
Average temperature yesterday: 70 °F

Past Weeks' High & Low Weather Summary

 TemperatureHumidityPressure
High90 °F (May 20, 4:00 PM)94% (May 15, 4:00 AM)30.01 "Hg (May 15, 4:00 AM)
Low64 °F (May 16, 5:00 AM)39% (May 12, 3:00 PM)29.56 "Hg (May 13, 5:00 PM)
Average72 °F73%29.78 "Hg
* Reported May 11 9:00 PM — May 26 9:00 PM, Chongqing, Weather by CustomWeather, © 2015

Note: Actual official high and low records may vary slightly from our data, if they occured in-between our weather recording intervals... More about our weather records

Advertising

Chongqing weather history for previous 24 hours

 ConditionsComfort  
Time TempWeatherWind HumidityBarometerVisibility
9:00 PM
Tue, May 26
72 °FPassing clouds.3 mph78%29.77 "HgN/A
8:00 PM72 °FMostly cloudy.6 mph78%29.74 "HgN/A
7:00 PM72 °FScattered clouds.3 mph78%29.71 "HgN/A
6:00 PM72 °FScattered clouds.3 mph78%29.71 "HgN/A
5:00 PM72 °FScattered clouds.3 mph78%29.71 "HgN/A
4:00 PM72 °FScattered clouds.3 mph78%29.71 "HgN/A
3:00 PM72 °FScattered clouds.3 mph78%29.74 "HgN/A
2:00 PM72 °FScattered clouds.3 mph78%29.77 "HgN/A
1:00 PM72 °FScattered clouds.3 mph73%29.77 "HgN/A
12:00 PM70 °FScattered clouds.1 mph78%29.80 "HgN/A
11:00 AM68 °FScattered clouds.3 mph83%29.80 "HgN/A
10:00 AM66 °FScattered clouds.1 mph88%29.83 "HgN/A
9:00 AM66 °FScattered clouds.1 mph88%29.80 "Hg6 mi
8:00 AM64 °FFog.1 mph94%29.80 "Hg3 mi
7:00 AM64 °FSprinkles. Fog.3 mph88%29.80 "Hg3 mi
6:00 AM64 °FSprinkles. Fog.3 mph94%29.77 "Hg2 mi
5:00 AM64 °FLight rain. Fog.3 mph94%29.77 "Hg3 mi
4:00 AM64 °FThunderstorms. Fog.6 mph94%29.77 "Hg2 mi
3:00 AM66 °FStrong thunderstorms. Fog.6 mph88%29.77 "Hg2 mi
2:00 AM68 °FRain showers. Passing clouds.6 mph78%29.77 "HgN/A
1:00 AM68 °FSprinkles. Passing clouds.6 mph73%29.77 "HgN/A
12:00 AM68 °FPassing clouds.6 mph78%29.80 "HgN/A
11:00 PM
Mon, May 25
70 °FPassing clouds.6 mph73%29.80 "HgN/A
10:00 PM70 °FPassing clouds.8 mph69%29.77 "HgN/A
Weather by CustomWeather, © 2015

See weather overviewHow to use our weather pages